Weather History for Old Crow, YT

Change the Weather History Date:

Saturday, November 9, 2013

  Actual Average Record
Temperature  
Mean Temperature -4 °F -  
Max Temperature 17 °F - - ()
Min Temperature -24 °F - - ()
Degree Days  
Heating Degree Days 69    
Moisture  
Dew Point -1 °F    
Average Humidity 84    
Maximum Humidity 93    
Minimum Humidity 68    
Precipitation  
Precipitation 0.00 in - - ()
Sea Level Pressure  
Sea Level Pressure 29.97 in    
Wind  
Wind Speed 2 mph ()    
Max Wind Speed 5 mph    
Max Gust Speed -    
T = Trace of Precipitation, MM = Missing Value Source: Averaged Metar Reports

Daily Weather History Graph

Daily Weather History Graph

Search for Another Location

Airport:

Trip Planner

Search our weather history database for the weather conditions in past years. The results will help you decide how hot, cold, wet, or windy it might be!

Date:

Astronomy

Nov. 09, 2013 Rise Set
Actual Time 10:01 AM PST 4:03 PM PST
Civil Twilight 8:51 AM PST 5:13 PM PST
Nautical Twilight 7:42 AM PST 6:22 PM PST
Astronomical Twilight 6:38 AM PST 7:26 PM PST
Moon 3:03 PM PST (11/9) 11:34 PM PST (11/9)
Length of Visible Light 8h 21m
Length of Day
6h 01m
Waxing Crescent, 45% of the Moon is Illuminated
Nov 9
Waxing Crescent
Nov 9
First Quarter
Nov 17
Full
Nov 25
Last Quarter
Dec 2
New

Hourly Weather History & Observations

Time (PST) Temp. Windchill Dew Point Humidity Pressure Visibility Wind Dir Wind Speed Gust Speed Precip Events Conditions
12:00 AM -16.6 °F -29.3 °F -22.2 °F 76% 30.22 in - SW 4.6 mph - N/A   Unknown
1:00 AM -16.4 °F - -22.0 °F 76% 30.21 in - West 1.2 mph - N/A   Unknown
2:00 AM -13.2 °F - -18.2 °F 78% 30.20 in - West 2.3 mph - N/A   Unknown
3:00 AM -11.0 °F - -15.9 °F 79% 30.19 in - West 2.3 mph - N/A   Unknown
4:00 AM -7 °F - -12 °F 68% 30.16 in - West 3.5 mph - -  
4:00 AM -7.2 °F -16.1 °F -11.7 °F 81% 30.16 in - West 3.5 mph - N/A   Unknown
5:00 AM -5.1 °F - -9.6 °F 81% 30.13 in - WSW 1.2 mph - N/A   Unknown
6:00 AM -4.4 °F - -8.5 °F 82% 30.12 in - SW 1.2 mph - N/A   Unknown
7:00 AM -4.0 °F - -8.3 °F 82% 30.10 in - NW 1.2 mph - N/A   Unknown
8:00 AM -2.9 °F - -6.9 °F 83% 30.08 in - SW 1.2 mph - N/A   Unknown
9:00 AM -2.6 °F - -6.7 °F 82% 30.06 in - Calm Calm - N/A   Unknown
10:00 AM -0 °F - -4 °F 75% 30.03 in - SSW 1.2 mph - -  
10:00 AM -0.2 °F - -4.0 °F 84% 30.03 in - SW 2.3 mph - N/A   Unknown
11:00 AM 1.6 °F - -2.0 °F 85% 30.01 in - SSW 1.2 mph - N/A   Unknown
12:00 PM 2.5 °F -5.0 °F -1.1 °F 85% 29.99 in - NE 3.5 mph - N/A   Unknown
1:00 PM 4.1 °F - 0.9 °F 86% 29.97 in - ESE 2.3 mph - N/A   Unknown
2:00 PM 6.1 °F - 3.0 °F 87% 29.95 in - NNE 1.2 mph - N/A   Unknown
3:00 PM 9.0 °F 2.4 °F 6.4 °F 89% 29.92 in - East 3.5 mph - N/A   Unknown
4:00 PM 11 °F - 9 °F 85% 29.89 in - NE 3.5 mph - -  
4:00 PM 11.1 °F 3.1 °F 8.6 °F 90% 29.90 in - ENE 4.6 mph - N/A   Unknown
5:00 PM 12.6 °F - 10.4 °F 91% 29.87 in - ENE 1.2 mph - N/A   Unknown
6:00 PM 13.5 °F - 11.3 °F 91% 29.83 in - East 1.2 mph - N/A   Unknown
7:00 PM 14.2 °F 8.4 °F 12.2 °F 92% 29.79 in - ENE 3.5 mph - N/A   Unknown
8:00 PM 15.3 °F 7.9 °F 13.1 °F 91% 29.75 in - ENE 4.6 mph - N/A   Unknown
9:00 PM 16.0 °F - 14.0 °F 92% 29.71 in - Calm Calm - N/A   Unknown
10:00 PM 17 °F - 15 °F 85% 29.66 in - East 2.3 mph - -  
10:00 PM 16.5 °F - 14.7 °F 93% 29.66 in - East 1.2 mph - N/A   Unknown
11:00 PM 17.2 °F - 15.4 °F 93% 29.64 in - Calm Calm - N/A   Unknown